Regional Weather Roundup
Issued by NWS

Home | Current Version | Previous Version | Graphics & Text | Print | Product List | Glossary Off
Versions: 1 2 3 4 5 6 7 8 9 10 11 12 13 14 15 16 17 18 19 20 21 22 23 24 25 26 27 28 29 30 31 32 33 34 35 36 37 38 39 40 41 42 43 44 45 46 47 48 49 50

000
ASUS43 KTOP 161859
RWRKS

WEATHER ROUNDUP FOR KANSAS
NATIONAL WEATHER SERVICE GOODLAND KS
100 PM CST SAT DEC 16 2017

NOTE:  "FAIR" INDICATES FEW OR NO CLOUDS BELOW 12,000 FEET WITH NO
SIGNIFICANT WEATHER AND/OR OBSTRUCTIONS TO VISIBILITY.

KSZ001>006-013>018-027>032-041>047-162000-
NORTHWEST KANSAS

CITY           SKY/WX    TMP DP  RH WIND       PRES   REMARKS
GOODLAND       CLOUDY    54  16  22 NE22      29.75S
HILL CITY      SUNNY     54  17  23 E12       29.75F
RUSSELL        SUNNY     53  25  33 S8        29.75F
$$

KSZ061>065-074>080-084>089-162000-
SOUTHWEST KANSAS

CITY           SKY/WX    TMP DP  RH WIND       PRES   REMARKS
DODGE CITY     SUNNY     55  22  27 S18G29    29.74F
GARDEN CITY    SUNNY     55  20  25 S16       29.72S
GREAT BEND     SUNNY     59  23  25 S20       29.76F
LIBERAL        SUNNY     57  19  22 S21G29    29.73F
$$

KSZ066>073-081>083-090>101-162000-
SOUTHEAST KANSAS

CITY           SKY/WX    TMP DP  RH WIND       PRES   REMARKS
CHANUTE        SUNNY     57  27  31 S20G32    29.93F
COFFEYVILLE    SUNNY     58  27  30 S17G23    29.95F
HUTCHINSON     SUNNY     57  27  31 S17       29.81F
MEDICINE LODGE   N/A     56  27  32 S17G26    29.81F
NEWTON         SUNNY     54  27  35 S20G26    29.84F
PARSONS        SUNNY     57  27  31 S17G28    29.95F
WICHITA INTL   SUNNY     57  29  34 S23       29.84F
WICHITA JABRA  SUNNY     55  28  35 S22G30    29.85F
WICHITA MCCONL SUNNY     57  26  30 SW23G30   29.85F
WINFIELD       SUNNY     59  27  29 SW24G32   29.89F
$$

KSZ007>012-019>026-033>040-048>060-102>105-162000-
NORTHEAST KANSAS

CITY           SKY/WX    TMP DP  RH WIND       PRES   REMARKS
CONCORDIA      SUNNY     50  24  36 S3        29.80F
EMPORIA        SUNNY     59  27  29 S14G25    29.86F
LAWRENCE       SUNNY     57  28  33 S10       29.87F
MANHATTAN      SUNNY     57  27  31 S8        29.82F
OLATHE IND     SUNNY     57  27  31 S21G28    29.89F
OLATHE EXE     SUNNY     56  27  32 S16G23    29.88F
SALINA         SUNNY     58  28  32 S13       29.81F
TOPEKA BILLARD SUNNY     56  29  35 S12G18    29.85F
TOPEKA FORBES  SUNNY     57  29  34 S15       29.85F
$$



USA.gov is the U.S. government's official web portal to all federal, state and local government web resources and services.